Miscellaneous Local Product
Issued by NWS North Platte, NE

Home | Current Version | Previous Version | Text Only | Print | Product List | Glossary On
Versions: 1 2 3 4 5 6 7 8 9 10 11 12 13 14 15 16 17 18 19 20 21 22 23 24 25 26 27 28 29 30 31 32 33 34 35 36 37 38 39 40 41 42 43 44 45 46 47 48 49 50
000
AXUS43 KLBF 031910
MISLBF


WESTERN AND NORTH CENTRAL NEBRASKA HOURLY WEATHER ROUNDUP
NATIONAL WEATHER SERVICE NORTH PLATTE NE
100 PM CST TUE MAR 03 2015

***STATIONS NOT REPORTING VARIABLES SUCH AS SKY/WEATHER OR
PRESSURE ARE PROVIDED BY THE NEBRASKA DEPARTMENT OF
ROADS...RAWS...AND APRS NETWORKS...AND ARE NOT UNDER
NATIONAL WEATHER SERVICE QUALITY CONTROL***

...OBSERVATIONS IN AND NEAR THE EASTERN PANHANDLE OF NEBRASKA...

CITY           SKY/WX    TMP DP  RH WIND       PRES   REMARKS
PINE RIDGE     CLOUDY    17   5  59 N13       30.02R WCI   4
CHADRON        LGT SNOW  19   9  65 NE6       30.04S WCI  11
WHITECLAY        N/A     17   5  59 NW12        N/A  WCI   4
CRESCENT LAKE    N/A     20   6  53 N13G26      N/A  WCI   7
LISCO            N/A     27   7  41 NW16        N/A  WCI  15
BIG SPRINGS      N/A     26  13  59 N12         N/A  WCI  16
LEWELLEN         N/A     22   3  44 E13         N/A  WCI  10
$$

...OBSERVATIONS IN NORTH CENTRAL NEBRASKA...

CITY           SKY/WX    TMP DP  RH WIND       PRES   REMARKS
VALENTINE      MOSUNNY   18   6  59 NW23G30   30.02R WCI   0
THEDFORD       CLOUDY    24  13  61 N25       29.98F WCI   8
AINSWORTH      PTSUNNY   20   7  56 NW21G31   30.01R WCI   4
O`NEILL        MOSUNNY   24  10  56 NW28G35   29.99R WCI   7
ORD            MOSUNNY   27   9  46 N31G37    29.95S WCI  10
BROWNLEE         N/A     19   6  57 NW23        N/A  WCI   2
SPRINGVIEW       N/A     19   9  63 NW14G29     N/A  WCI   6
BREWSTER         N/A     30  15  53 E21         N/A  WCI  17
ROSE             N/A     30  19  62 SW21        N/A  WCI  17
NEWPORT          N/A     29  17  61 W22         N/A  WCI  15
SARGENT          N/A     27  12  53 NW10G26     N/A  WCI  17
COMSTOCK         N/A     32  12  43 N23         N/A  WCI  19
CHAMBERS         N/A     26   9  48 N8G18       N/A  WCI  18
EWING            N/A     24  11  56 N15G26      N/A  WCI  11
$$

...OBSERVATIONS IN SOUTHWEST NEBRASKA AND FAR NORTHEAST COLORADO...

CITY           SKY/WX    TMP DP  RH WIND       PRES   REMARKS
WRAY           CLOUDY    28  14  57 N23G29    29.93F WCI  13
OGALLALA       CLOUDY    27  12  53 N17G26    29.97F WCI  14
LEXINGTON      SUNNY     32  12  44 N25G35    29.95R WCI  18
PAXTON           N/A     27  15  59 N16         N/A  WCI  15
BRADY            N/A     28  11  50 NE3G13      N/A
GOTHENBURG       N/A     28  11  50 NW15        N/A  WCI  16
CALLAWAY         N/A     27  14  58 N20         N/A  WCI  14
$$

...NORTH PLATTE AREA...

CITY           SKY/WX    TMP DP  RH WIND       PRES   REMARKS
DOWNTOWN         N/A     26  11  52 N10G20      N/A  WCI  16
$$

...SOME WEATHER OBSERVATIONS FROM AROUND THE REGION...

CITY           SKY/WX    TMP DP  RH WIND       PRES   REMARKS
LARAMIE        PTSUNNY   20  14  77 S8        29.72F WCI  10
CHEYENNE       LGT SNOW  12   3  67 N13       29.85F WCI  -3
SCOTTSBLUFF    CLOUDY    21  11  65 MISG      29.98F
WINNER         FAIR      18   3  52 NW26      30.03R WCI  -1
SIOUX FALLS    LGT SNOW  19  12  74 NW28G37   29.90R BLWGSNOWWCI   1
HAYS           CLOUDY    41  23  48 N22G33    29.90R
LIBERAL        CLOUDY    41  34  75 NE22      29.86S
$$



USA.gov is the U.S. government's official web portal to all federal, state and local government web resources and services.